QPF
0.00 0.00 0.00 0.00 0.00 0.00 0.00 0.00 0.00 0.00 0.00 0.00 0.00 0.00 0.00 0.00 0.00 0.00 0.00 0.00 0.00 0.00 0.00 0.00 0.00 0.00 0.00 0.00 0.00 0.00 0.00 0.00 0.00 0.00 0.00 0.00 0.00 0.00 0.00 0.00 0.00 0.00 0.00 0.00 0.00 0.00 0.00
0.00 0.00 0.00 0.00 0.00 0.00 0.00 0.00 0.00 0.00 0.00 0.00 0.00 0.00 0.00 0.00 0.00 0.00 0.00 0.00 0.00 0.00 0.00 0.00 0.00 0.00 0.00 0.00 0.00 0.00 0.00 0.00 0.00 0.00 0.00 0.00 0.00 0.00 0.00 0.00 0.00 0.00 0.00 0.00 0.00 0.00 0.00
0.00 0.00 0.00 0.00 0.00 0.00 0.00 0.00 0.00 0.00 0.00 0.00 0.00 0.00 0.00 0.00 0.00 0.00 0.00 0.00 0.00 0.00 0.00 0.00 0.00 0.00 0.00 0.00 0.00 0.00 0.00 0.00 0.00 0.00 0.00 0.00 0.00 0.00 0.00 0.00 0.00 0.00 0.00 0.00 0.00 0.00 0.00
0.00 0.00 0.00 0.00 0.00 0.00 0.00 0.00 0.00 0.00 0.00 0.00 0.00 0.00 0.00 0.00 0.00 0.00 0.00 0.00 0.00 0.00 0.00 0.00 0.00 0.00 0.00 0.00 0.00 0.00 0.00 0.00 0.00 0.00 0.00 0.00 0.00 0.00 0.00 0.00 0.00 0.00 0.00 0.00 0.00 0.00 0.00
0.00 0.00 0.00 0.00 0.00 0.00 0.00 0.00 0.00 0.00 0.00 0.00 0.00 0.00 0.00 0.00 0.00 0.00 0.00 0.00 0.00 0.00 0.00 0.00 0.00 0.00 0.00 0.00 0.00 0.00 0.00 0.00 0.00 0.00 0.00 0.00 0.00 0.00 0.00 0.00 0.00 0.00 0.00 0.00 0.00 0.00 0.00
0.00 0.00 0.00 0.00 0.00 0.00 0.00 0.00 0.00 0.00 0.00 0.00 0.00 0.00 0.00 0.00 0.00 0.00 0.00 0.00 0.00 0.00 0.00 0.00 0.00 0.00 0.00 0.00 0.00 0.00 0.00 0.00 0.00 0.00 0.00 0.00 0.00 0.00 0.00 0.00 0.00 0.00 0.00 0.00 0.00 0.00 0.00
0.00 0.00 0.00 0.00 0.00 0.00 0.00 0.00 0.00 0.00 0.00 0.00 0.00 0.00 0.00 0.00 0.00 0.00 0.00 0.00 0.00 0.00 0.00 0.00 0.00 0.00 0.00 0.00 0.00 0.00 0.00 0.00 0.00 0.00 0.00 0.00 0.00 0.00 0.00 0.00 0.00 0.00 0.00 0.00 0.00 0.00 0.00
0.00 0.00 0.00 0.00 0.00 0.00 0.00 0.00 0.00 0.00 0.00 0.00 0.00 0.00 0.00 0.00 0.00 0.00 0.00 0.00 0.00 0.00 0.00 0.00 0.00 0.00 0.00 0.00 0.00 0.00 0.00 0.00 0.00 0.00 0.00 0.00 0.00 0.00 0.00 0.00 0.00 0.00 0.00 0.00 0.00 0.00 0.00
0.00 0.00 0.00 0.00 0.00 0.00 0.00 0.00 0.00 0.00 0.00 0.00 0.00 0.00 0.00 0.00 0.00 0.00 0.00 0.00 0.00 0.00 0.00 0.00 0.00 0.00 0.00 0.00 0.00 0.00 0.00 0.00 0.00 0.00 0.00 0.00 0.00 0.00 0.00 0.00 0.00 0.00 0.00 0.00 0.00 0.00 0.00
0.00 0.00 0.00 0.00 0.00 0.00 0.00 0.00 0.00 0.00 0.00 0.00 0.00 0.00 0.00 0.00 0.00 0.00 0.00 0.00 0.00 0.00 0.00 0.00 0.00 0.00 0.00 0.00 0.00 0.00 0.00 0.00 0.00 0.00 0.00 0.00 0.00 0.00 0.00 0.00 0.00 0.00 0.00 0.00 0.00 0.00 0.00
0.00 0.00 0.00 0.00 0.00 0.00 0.00 0.00 0.00 0.00 0.00 0.00 0.00 0.00 0.00 0.00 0.00 0.00 0.00 0.00 0.00 0.00 0.00 0.00 0.00 0.00 0.00 0.00 0.00 0.00 0.00 0.00 0.00 0.00 0.00 0.00 0.00 0.00 0.00 0.00 0.00 0.00 0.00 0.00 0.00 0.00 0.00
0.00 0.00 0.00 0.00 0.00 0.00 0.00 0.00 0.00 0.00 0.00 0.00 0.00 0.00 0.00 0.00 0.00 0.00 0.00 0.00 0.00 0.00 0.00 0.00 0.00 0.00 0.00 0.00 0.00 0.00 0.00 0.00 0.00 0.00 0.00 0.00 0.00 0.00 0.00 0.00 0.00 0.00 0.00 0.00 0.00 0.00 0.00
0.00 0.00 0.00 0.00 0.00 0.00 0.00 0.00 0.00 0.00 0.00 0.00 0.00 0.00 0.00 0.00 0.00 0.00 0.00 0.00 0.00 0.00 0.00 0.00 0.00 0.00 0.00 0.00 0.00 0.00 0.00 0.00 0.00 0.00 0.00 0.00 0.00 0.00 0.00 0.00 0.00 0.00 0.00 0.00 0.00 0.00 0.00
0.00 0.00 0.00 0.00 0.00 0.00 0.00 0.00 0.00 0.00 0.00 0.00 0.00 0.00 0.00 0.00 0.00 0.00 0.00 0.00 0.00 0.00 0.00 0.00 0.00 0.00 0.00 0.00 0.00 0.00 0.00 0.00 0.00 0.00 0.00 0.00 0.00 0.00 0.00 0.00 0.00 0.00 0.00 0.00 0.00 0.00 0.00
0.00 0.00 0.00 0.00 0.00 0.00 0.00 0.00 0.00 0.00 0.00 0.00 0.00 0.00 0.00 0.00 0.00 0.00 0.00 0.00 0.00 0.00 0.00 0.00 0.00 0.00 0.00 0.00 0.00 0.00 0.00 0.00 0.00 0.00 0.00 0.00 0.00 0.00 0.00 0.00 0.00 0.00 0.00 0.00 0.00 0.00 0.00
0.00 0.00 0.00 0.00 0.00 0.00 0.00 0.00 0.00 0.00 0.00 0.00 0.00 0.00 0.00 0.00 0.00 0.00 0.00 0.00 0.00 0.00 0.00 0.00 0.00 0.00 0.00 0.00 0.00 0.00 0.00 0.00 0.00 0.00 0.00 0.00 0.00 0.00 0.00 0.00 0.00 0.00 0.00 0.00 0.00 0.00 0.00
0.00 0.00 0.00 0.00 0.00 0.00 0.00 0.00 0.00 0.00 0.00 0.00 0.00 0.00 0.00 0.00 0.00 0.00 0.00 0.00 0.00 0.00 0.00 0.00 0.00 0.00 0.00 0.00 0.00 0.00 0.00 0.00 0.00 0.00 0.00 0.00 0.00 0.00 0.00 0.00 0.00 0.00 0.00 0.00 0.00 0.00 0.00
0.00 0.00 0.00 0.00 0.00 0.00 0.00 0.00 0.00 0.00 0.00 0.00 0.00 0.00 0.00 0.00 0.00 0.00 0.00 0.00 0.00 0.00 0.00 0.00 0.00 0.00 0.00 0.00 0.00 0.00 0.00 0.00 0.00 0.00 0.00 0.00 0.00 0.00 0.00 0.00 0.00 0.00 0.00 0.00 0.00 0.00 0.00
0.00 0.00 0.00 0.00 0.00 0.00 0.00 0.00 0.00 0.00 0.00 0.00 0.00 0.00 0.00 0.00 0.00 0.00 0.00 0.00 0.00 0.00 0.00 0.00 0.00 0.00 0.00 0.00 0.00 0.00 0.00 0.00 0.00 0.00 0.00 0.00 0.00 0.00 0.00 0.00 0.00 0.00 0.00 0.00 0.00 0.00 0.00
0.00 0.00 0.00 0.00 0.00 0.00 0.00 0.00 0.00 0.00 0.00 0.00 0.00 0.00 0.00 0.00 0.00 0.00 0.00 0.00 0.00 0.00 0.00 0.00 0.00 0.00 0.00 0.00 0.00 0.00 0.00 0.00 0.00 0.00 0.00 0.00 0.00 0.00 0.00 0.00 0.00 0.00 0.00 0.00 0.00 0.00 0.00
0.00 0.00 0.00 0.00 0.00 0.00 0.00 0.00 0.00 0.00 0.00 0.00 0.00 0.00 0.00 0.00 0.00 0.00 0.00 0.00 0.00 0.00 0.00 0.00 0.00 0.00 0.00 0.00 0.00 0.00 0.00 0.00 0.00 0.00 0.00 0.00 0.00 0.00 0.00 0.00 0.00 0.00 0.00 0.00 0.00 0.00 0.00
0.00 0.00 0.00 0.00 0.00 0.00 0.00 0.00 0.00 0.00 0.00 0.00 0.00 0.00 0.00 0.00 0.00 0.00 0.00 0.00 0.00 0.00 0.00 0.00 0.00 0.00 0.00 0.00 0.00 0.00 0.00 0.00 0.00 0.00 0.00 0.00 0.00 0.00 0.00 0.00 0.00 0.00 0.00 0.00 0.00 0.00 0.00
0.00 0.00 0.00 0.00 0.00 0.00 0.00 0.00 0.00 0.00 0.00 0.00 0.00 0.00 0.00 0.00 0.00 0.00 0.00 0.00 0.00 0.00 0.00 0.00 0.00 0.00 0.00 0.00 0.00 0.00 0.00 0.00 0.00 0.00 0.00 0.00 0.00 0.00 0.00 0.00 0.00 0.00 0.00 0.00 0.00 0.00 0.00
0.00 0.00 0.00 0.00 0.00 0.00 0.00 0.00 0.00 0.00 0.00 0.00 0.00 0.00 0.00 0.00 0.00 0.00 0.00 0.00 0.00 0.00 0.00 0.00 0.00 0.00 0.00 0.00 0.00 0.00 0.00 0.00 0.00 0.00 0.00 0.00 0.00 0.00 0.00 0.00 0.00 0.00 0.00 0.00 0.00 0.00 0.00
0.00 0.00 0.00 0.00 0.00 0.00 0.00 0.00 0.00 0.00 0.00 0.00 0.00 0.00 0.00 0.00 0.00 0.00 0.00 0.00 0.00 0.00 0.00 0.00 0.00 0.00 0.00 0.00 0.00 0.00 0.00 0.00 0.00 0.00 0.00 0.00 0.00 0.00 0.00 0.00 0.00 0.00 0.00 0.00 0.00 0.00 0.00
0.00 0.00 0.00 0.00 0.00 0.00 0.00 0.00 0.00 0.00 0.00 0.00 0.00 0.00 0.00 0.00 0.00 0.00 0.00 0.00 0.00 0.00 0.00 0.00 0.00 0.00 0.00 0.00 0.00 0.00 0.00 0.00 0.00 0.00 0.00 0.00 0.00 0.00 0.00 0.00 0.00 0.00 0.00 0.00 0.00 0.00 0.00
0.00 0.00 0.00 0.00 0.00 0.00 0.00 0.00 0.00 0.00 0.00 0.00 0.00 0.00 0.00 0.00 0.00 0.00 0.00 0.00 0.00 0.00 0.00 0.00 0.00 0.00 0.00 0.00 0.00 0.00 0.00 0.00 0.00 0.00 0.00 0.00 0.00 0.00 0.00 0.00 0.00 0.00 0.00 0.00 0.00 0.00 0.00
0.00 0.00 0.00 0.00 0.00 0.00 0.00 0.00 0.00 0.00 0.00 0.00 0.00 0.00 0.00 0.00 0.00 0.00 0.00 0.00 0.00 0.00 0.00 0.00 0.00 0.00 0.00 0.00 0.00 0.00 0.00 0.00 0.00 0.00 0.00 0.00 0.00 0.00 0.00 0.00 0.00 0.00 0.00 0.00 0.00 0.00 0.00
0.00 0.00 0.00 0.00 0.00 0.00 0.00 0.00 0.00 0.00 0.00 0.00 0.00 0.00 0.00 0.00 0.00 0.00 0.00 0.00 0.00 0.00 0.00 0.00 0.00 0.00 0.00 0.00 0.00 0.00 0.00 0.00 0.00 0.00 0.00 0.00 0.00 0.00 0.00 0.00 0.00 0.00 0.00 0.00 0.00 0.00 0.00
MSLP
1021.67 1021.43 1021.17 1020.94 1020.72 1020.53 1020.13 1019.84 1019.46 1019.10 1018.71 1018.15 1017.58 1017.14 1016.86 1016.34 1015.63 1015.17 1014.68 1014.05 1013.60 1013.06 1012.59 1012.17 1011.88 1011.30 1010.55 1009.80 1007.82 1006.72 1006.79 1006.85 1006.67 1006.72 1006.71 1006.48 1006.44 1006.30 1006.56 1006.62 1006.56 1006.66 1006.25 1006.00 1005.87 1005.70 1006.09
1021.94 1021.63 1021.35 1021.19 1020.97 1020.60 1020.19 1019.86 1019.46 1019.04 1018.66 1018.20 1017.75 1017.30 1016.71 1016.04 1015.50 1015.03 1014.32 1014.02 1013.45 1012.83 1012.33 1012.01 1011.90 1011.40 1010.82 1009.13 1006.69 1006.72 1006.85 1007.03 1006.87 1006.84 1006.70 1006.51 1006.41 1006.28 1006.45 1006.70 1006.82 1006.65 1006.33 1005.78 1005.44 1005.59 1005.79
1022.21 1021.96 1021.58 1021.39 1021.11 1020.78 1020.31 1019.91 1019.53 1019.10 1018.72 1018.28 1017.80 1017.16 1016.58 1016.07 1015.41 1014.77 1014.19 1013.61 1013.29 1012.59 1012.03 1011.90 1011.77 1011.39 1010.54 1007.97 1006.77 1006.82 1006.88 1006.95 1006.88 1006.91 1006.86 1006.47 1006.32 1006.35 1006.50 1006.80 1006.79 1006.73 1006.57 1005.98 1005.62 1005.63 1005.42
1022.33 1022.08 1021.90 1021.53 1021.22 1020.84 1020.40 1020.02 1019.50 1019.09 1018.72 1018.31 1017.78 1017.36 1016.65 1016.05 1015.25 1014.42 1013.88 1013.37 1012.55 1011.95 1011.58 1011.54 1011.53 1011.22 1009.55 1007.01 1006.83 1006.84 1006.80 1006.90 1006.84 1006.81 1006.86 1006.47 1006.42 1006.64 1006.89 1007.06 1007.16 1007.40 1007.38 1007.16 1005.69 1005.46 1005.38
1022.53 1022.31 1021.97 1021.66 1021.34 1020.99 1020.59 1020.12 1019.71 1019.31 1018.78 1018.20 1017.78 1017.31 1016.71 1015.90 1015.05 1014.30 1013.44 1012.54 1011.95 1011.59 1011.42 1011.40 1011.51 1010.80 1008.73 1006.80 1006.83 1006.45 1006.48 1006.78 1006.72 1006.72 1006.65 1006.64 1006.89 1007.70 1007.76 1008.07 1008.67 1008.78 1008.34 1007.80 1006.69 1005.70 1005.65
1022.87 1022.62 1022.25 1021.82 1021.48 1021.06 1020.69 1020.22 1019.75 1019.18 1018.59 1018.06 1017.64 1017.08 1016.44 1015.67 1014.98 1014.16 1012.89 1011.74 1011.41 1011.62 1011.69 1011.58 1011.08 1010.63 1008.36 1007.20 1006.60 1006.28 1006.33 1006.54 1006.80 1006.84 1007.01 1007.34 1008.25 1008.58 1008.91 1008.91 1009.33 1009.18 1008.85 1008.11 1007.54 1006.37 1006.04
1023.14 1022.79 1022.47 1022.16 1021.73 1021.26 1020.89 1020.41 1019.81 1019.21 1018.61 1018.20 1017.66 1017.05 1016.42 1015.69 1014.83 1013.93 1012.60 1011.49 1012.27 1012.19 1011.52 1010.93 1010.32 1009.59 1008.36 1007.23 1006.49 1006.24 1006.27 1006.61 1006.90 1007.45 1007.95 1008.27 1008.85 1009.00 1008.75 1008.72 1008.72 1008.89 1008.83 1008.56 1007.42 1006.63 1006.44
1023.27 1022.98 1022.63 1022.22 1021.70 1021.43 1021.10 1020.54 1019.85 1019.29 1018.78 1018.36 1017.71 1017.09 1016.33 1015.36 1014.59 1013.84 1013.57 1013.55 1013.89 1013.95 1012.42 1010.10 1009.52 1009.03 1008.05 1007.57 1007.30 1006.35 1006.20 1006.73 1007.17 1008.00 1008.42 1008.95 1008.92 1008.59 1008.44 1008.43 1008.41 1008.56 1008.47 1008.09 1007.39 1007.14 1006.89
1023.35 1023.14 1022.66 1022.23 1021.92 1021.64 1021.01 1020.44 1019.83 1019.27 1018.77 1018.26 1017.69 1016.92 1016.14 1015.11 1014.33 1013.91 1014.24 1013.66 1013.60 1013.49 1012.92 1009.79 1008.70 1007.98 1007.35 1007.42 1007.02 1006.45 1006.43 1006.74 1007.29 1008.08 1008.54 1008.92 1008.41 1007.98 1008.07 1007.91 1008.11 1008.08 1008.12 1007.97 1008.15 1007.85 1007.86
1023.55 1023.22 1022.83 1022.33 1022.03 1021.51 1021.04 1020.38 1019.71 1019.10 1018.60 1018.12 1017.61 1016.82 1016.24 1015.12 1014.53 1015.11 1014.05 1013.31 1013.12 1013.06 1012.71 1009.60 1008.10 1006.63 1006.72 1006.62 1006.53 1005.78 1005.92 1006.54 1007.23 1007.75 1008.47 1008.43 1007.77 1007.60 1007.49 1007.40 1007.47 1007.76 1007.47 1007.92 1008.44 1008.95 1009.51
1023.75 1023.32 1022.84 1022.45 1022.10 1021.60 1020.96 1020.25 1019.56 1018.92 1018.39 1017.91 1017.32 1016.81 1016.36 1016.11 1015.88 1014.99 1013.50 1013.02 1012.63 1012.81 1012.18 1008.61 1007.17 1006.08 1006.23 1006.26 1005.90 1005.75 1005.65 1006.12 1006.92 1007.57 1008.22 1007.85 1007.48 1007.14 1006.98 1006.68 1006.94 1007.48 1007.71 1008.70 1009.40 1010.24 1010.66
1023.84 1023.42 1022.96 1022.57 1022.06 1021.57 1020.93 1020.20 1019.46 1018.84 1018.23 1017.55 1017.03 1016.69 1016.37 1016.31 1015.96 1014.02 1013.34 1012.96 1012.62 1013.08 1011.01 1008.19 1006.85 1006.40 1006.54 1006.18 1005.89 1005.96 1006.00 1006.16 1006.78 1007.61 1007.80 1007.71 1007.10 1006.74 1006.28 1006.17 1006.59 1007.50 1008.61 1010.07 1011.14 1011.69 1012.62
1023.91 1023.42 1023.08 1022.58 1022.14 1021.57 1020.93 1020.20 1019.48 1018.79 1018.00 1017.22 1016.56 1016.25 1016.24 1015.81 1014.65 1013.82 1013.47 1013.36 1013.83 1013.10 1010.35 1008.77 1007.57 1006.91 1006.74 1006.62 1006.26 1006.08 1006.52 1006.85 1007.49 1008.18 1008.37 1007.81 1007.09 1006.21 1005.93 1006.42 1007.04 1008.00 1009.84 1011.60 1012.93 1013.68 1013.59
1023.92 1023.43 1022.99 1022.57 1022.11 1021.53 1020.81 1020.01 1019.29 1018.56 1017.78 1016.88 1015.96 1015.19 1014.93 1014.69 1014.02 1013.87 1013.71 1014.14 1013.91 1011.98 1010.67 1008.99 1007.95 1007.22 1006.90 1006.59 1006.58 1006.67 1007.03 1007.57 1007.80 1008.04 1008.61 1008.16 1007.45 1006.35 1005.81 1006.15 1007.11 1008.49 1009.80 1011.82 1013.54 1014.78 1014.18
1023.91 1023.46 1022.99 1022.59 1022.14 1021.45 1020.73 1020.03 1019.24 1018.47 1017.56 1016.52 1015.34 1015.09 1015.07 1013.83 1013.94 1014.44 1014.43 1014.67 1013.37 1011.99 1010.55 1009.47 1008.26 1007.62 1007.10 1006.68 1006.66 1007.03 1007.43 1007.89 1007.72 1007.84 1008.37 1008.29 1007.54 1006.40 1006.00 1006.03 1006.79 1008.80 1010.09 1011.39 1013.29 1014.97 1014.72
1023.96 1023.60 1023.21 1022.76 1022.18 1021.53 1020.88 1020.15 1019.31 1018.35 1017.36 1016.47 1016.02 1015.50 1014.80 1013.80 1013.88 1014.35 1014.62 1014.44 1013.21 1011.83 1010.58 1009.57 1008.97 1008.11 1007.69 1007.32 1007.35 1007.42 1007.57 1007.17 1007.32 1007.28 1007.33 1008.13 1007.91 1006.93 1006.35 1006.41 1007.34 1007.98 1009.60 1011.62 1013.13 1014.62 1015.07
1024.23 1023.88 1023.42 1022.90 1022.33 1021.67 1020.89 1020.12 1019.23 1018.28 1017.09 1016.15 1016.04 1015.51 1014.49 1014.08 1014.14 1014.55 1015.16 1014.42 1012.97 1011.36 1010.69 1009.78 1009.17 1008.55 1007.95 1007.63 1007.59 1007.60 1007.42 1006.80 1006.59 1007.12 1007.36 1008.31 1008.57 1007.97 1007.35 1007.13 1007.68 1008.61 1009.87 1011.81 1013.28 1014.35 1014.88
1024.37 1024.01 1023.54 1022.98 1022.34 1021.65 1020.94 1020.24 1019.34 1018.38 1017.16 1016.22 1016.32 1016.09 1014.63 1014.37 1014.98 1015.77 1015.31 1014.06 1012.76 1011.36 1010.44 1009.75 1009.34 1008.86 1008.22 1007.76 1007.59 1007.58 1007.18 1006.60 1006.03 1006.59 1007.69 1008.10 1008.82 1009.00 1008.26 1007.53 1007.66 1008.13 1009.41 1010.94 1013.11 1014.54 1014.84
1024.33 1023.88 1023.39 1022.93 1022.38 1021.75 1021.11 1020.32 1019.47 1018.67 1017.83 1017.59 1017.39 1016.65 1014.77 1014.59 1015.71 1016.06 1014.99 1013.91 1012.71 1011.58 1010.71 1010.03 1009.49 1008.73 1008.29 1008.14 1007.99 1007.28 1006.88 1006.04 1006.19 1006.42 1006.87 1007.95 1009.07 1009.66 1008.83 1008.51 1008.01 1008.36 1009.31 1010.51 1011.83 1013.01 1014.19
1024.58 1024.14 1023.76 1023.33 1022.73 1022.02 1021.22 1020.46 1019.87 1018.91 1017.90 1017.69 1017.81 1017.37 1016.28 1015.92 1016.13 1015.78 1015.20 1014.13 1012.78 1011.28 1010.80 1010.13 1009.52 1008.87 1008.55 1008.28 1008.15 1007.69 1007.00 1006.39 1006.53 1006.59 1006.69 1007.12 1009.16 1009.44 1009.18 1008.55 1008.27 1008.77 1009.26 1010.16 1010.72 1012.43 1013.55
1024.36 1023.98 1023.54 1022.89 1022.41 1021.98 1021.52 1021.14 1020.20 1018.99 1018.05 1018.04 1018.16 1018.52 1017.93 1017.14 1016.61 1016.03 1015.46 1014.42 1013.32 1012.20 1010.99 1010.23 1009.59 1009.09 1008.80 1008.72 1008.39 1008.05 1007.51 1007.17 1006.96 1007.13 1007.53 1007.92 1009.15 1009.40 1008.94 1008.43 1008.22 1008.30 1008.94 1009.55 1010.29 1011.09 1011.81
1024.27 1023.97 1023.50 1023.14 1022.82 1022.44 1022.07 1021.48 1020.53 1019.32 1018.19 1018.23 1019.11 1019.13 1018.16 1017.63 1016.96 1016.11 1015.45 1014.44 1013.45 1012.48 1011.77 1010.45 1010.03 1009.04 1008.82 1008.81 1008.43 1008.31 1008.26 1008.06 1007.94 1007.70 1008.18 1008.99 1009.67 1009.48 1009.61 1008.72 1008.43 1008.74 1009.01 1009.32 1010.02 1010.82 1011.36
1024.37 1024.06 1023.87 1023.62 1023.25 1022.97 1022.66 1022.03 1020.94 1019.97 1018.84 1019.39 1019.82 1019.35 1018.93 1018.19 1017.36 1016.51 1015.51 1014.54 1013.44 1012.82 1011.04 1010.28 1009.82 1009.53 1009.22 1008.77 1008.57 1008.60 1008.53 1008.62 1008.59 1008.60 1008.96 1009.53 1010.03 1010.46 1010.67 1009.70 1009.13 1009.35 1009.39 1009.65 1010.44 1010.90 1011.43
1024.50 1024.24 1024.09 1023.91 1023.56 1023.16 1022.66 1022.01 1021.34 1020.86 1020.53 1020.66 1020.73 1020.52 1019.80 1018.98 1017.79 1016.80 1015.64 1014.72 1013.63 1013.03 1012.21 1010.72 1010.19 1010.08 1009.83 1009.09 1008.91 1008.92 1008.85 1008.81 1009.06 1009.13 1009.00 1009.86 1010.68 1011.28 1011.81 1010.81 1010.51 1009.86 1009.42 1009.53 1010.23 1010.98 1011.45
1024.44 1024.30 1024.12 1023.97 1023.64 1023.25 1022.72 1022.29 1021.62 1021.26 1020.70 1020.87 1020.92 1020.84 1020.58 1019.57 1018.27 1016.81 1015.88 1014.85 1013.70 1013.16 1012.67 1011.72 1010.89 1010.72 1010.27 1009.89 1010.12 1010.23 1010.27 1009.69 1009.67 1010.04 1009.85 1009.96 1011.04 1012.43 1012.72 1012.29 1011.53 1010.55 1010.04 1009.89 1009.81 1010.96 1011.25
1024.26 1024.19 1024.07 1023.90 1023.64 1023.32 1022.85 1022.45 1021.89 1021.45 1020.92 1021.01 1021.19 1021.09 1020.89 1020.44 1018.64 1017.44 1016.34 1015.39 1015.01 1014.41 1013.37 1012.37 1011.38 1010.87 1010.69 1011.39 1011.75 1012.06 1011.84 1011.18 1010.83 1010.72 1010.54 1010.89 1011.13 1012.19 1013.39 1013.18 1012.13 1010.56 1009.91 1009.79 1009.87 1011.10 1011.33
1024.02 1023.97 1024.00 1023.82 1023.68 1023.34 1023.00 1022.58 1022.12 1021.63 1021.18 1021.25 1021.38 1021.24 1021.07 1020.85 1018.77 1017.78 1016.76 1016.04 1015.59 1015.37 1014.97 1014.18 1013.27 1012.19 1011.72 1012.66 1013.31 1013.41 1012.85 1012.11 1011.92 1011.73 1012.03 1012.40 1013.13 1013.46 1013.88 1013.73 1012.66 1011.28 1010.67 1010.41 1011.03 1011.63 1011.11
1023.66 1023.71 1023.77 1023.69 1023.62 1023.34 1023.06 1022.72 1022.27 1021.90 1021.42 1021.48 1021.59 1021.33 1021.43 1021.25 1019.18 1017.89 1016.92 1016.30 1015.94 1015.97 1015.71 1014.88 1014.40 1013.93 1013.50 1013.87 1014.29 1014.21 1013.74 1013.28 1012.94 1012.80 1012.86 1013.38 1013.89 1014.45 1014.82 1014.40 1013.53 1012.57 1011.70 1011.72 1011.71 1011.44 1011.36
1023.29 1023.42 1023.50 1023.52 1023.45 1023.27 1023.04 1022.71 1022.38 1022.12 1021.76 1021.47 1021.85 1021.56 1021.58 1021.53 1019.54 1018.11 1016.84 1016.17 1015.88 1015.69 1015.75 1015.54 1015.55 1015.31 1015.07 1015.04 1015.16 1014.99 1014.91 1014.51 1014.56 1014.15 1013.44 1013.90 1013.88 1014.24 1014.71 1014.24 1013.52 1013.48 1012.82 1012.20 1012.00 1011.78 1011.89
Thickness
5647 5653 5660 5666 5672 5678 5685 5691 5698 5705 5711 5720 5728 5734 5739 5745 5754 5761 5766 5773 5778 5784 5789 5793 5797 5804 5813 5808 5816 5848 5849 5851 5854 5853 5846 5844 5840 5839 5826 5831 5836 5830 5840 5847 5850 5851 5845
5640 5647 5653 5659 5665 5672 5680 5686 5693 5701 5708 5715 5722 5729 5737 5746 5752 5759 5767 5771 5778 5784 5789 5793 5796 5802 5805 5795 5846 5847 5848 5847 5848 5847 5845 5847 5844 5848 5836 5833 5830 5840 5840 5843 5851 5852 5849
5634 5640 5646 5652 5659 5666 5674 5681 5688 5696 5703 5710 5718 5727 5735 5742 5750 5758 5765 5771 5776 5784 5790 5792 5796 5802 5800 5807 5844 5846 5847 5844 5848 5846 5838 5850 5853 5845 5842 5830 5842 5839 5829 5838 5846 5848 5849
5629 5634 5640 5646 5653 5661 5668 5675 5684 5691 5698 5705 5714 5721 5730 5738 5748 5758 5764 5770 5780 5787 5791 5794 5796 5800 5794 5838 5843 5843 5846 5843 5848 5849 5847 5853 5854 5845 5838 5841 5828 5818 5816 5798 5838 5847 5850
5622 5627 5633 5639 5646 5653 5661 5669 5677 5684 5693 5701 5709 5716 5725 5735 5746 5755 5764 5774 5781 5787 5791 5793 5794 5797 5794 5839 5831 5844 5847 5836 5843 5847 5848 5852 5845 5824 5826 5807 5791 5791 5785 5798 5810 5841 5842
5614 5619 5626 5633 5639 5647 5654 5663 5671 5680 5689 5698 5705 5713 5723 5733 5741 5751 5765 5777 5782 5784 5786 5788 5793 5786 5810 5812 5832 5841 5847 5844 5835 5835 5830 5826 5811 5799 5794 5789 5764 5785 5787 5795 5794 5825 5837
5607 5613 5618 5624 5631 5638 5646 5654 5664 5674 5683 5690 5699 5708 5717 5727 5738 5748 5764 5775 5766 5769 5779 5781 5786 5788 5800 5820 5835 5832 5841 5834 5831 5817 5797 5808 5790 5784 5799 5803 5801 5799 5791 5786 5804 5826 5827
5603 5607 5613 5619 5625 5630 5637 5646 5657 5667 5675 5683 5693 5702 5712 5725 5734 5744 5751 5753 5751 5754 5749 5784 5787 5791 5806 5815 5800 5820 5838 5813 5810 5790 5801 5786 5778 5798 5807 5805 5802 5796 5791 5791 5808 5822 5823
5598 5601 5608 5614 5618 5622 5631 5641 5651 5661 5670 5678 5687 5698 5709 5722 5730 5738 5739 5748 5752 5754 5743 5773 5789 5793 5802 5807 5797 5805 5820 5812 5800 5789 5791 5777 5797 5808 5804 5802 5797 5798 5793 5799 5797 5808 5814
5593 5597 5603 5609 5613 5619 5625 5635 5646 5656 5665 5673 5682 5693 5701 5716 5723 5721 5736 5746 5750 5753 5717 5757 5777 5794 5803 5805 5794 5822 5825 5813 5800 5785 5784 5787 5804 5804 5801 5797 5800 5789 5813 5813 5806 5792 5771
5587 5593 5599 5604 5609 5615 5623 5632 5641 5651 5660 5668 5677 5685 5693 5700 5704 5717 5736 5741 5747 5746 5689 5770 5779 5811 5804 5795 5803 5807 5826 5814 5788 5789 5787 5784 5797 5799 5794 5805 5812 5798 5816 5805 5797 5778 5778
5583 5589 5595 5600 5606 5613 5620 5629 5638 5646 5655 5664 5673 5679 5686 5691 5697 5718 5728 5733 5737 5696 5688 5749 5778 5777 5779 5791 5796 5801 5804 5815 5806 5790 5793 5789 5812 5809 5807 5820 5818 5811 5798 5777 5763 5757 5737
5578 5584 5589 5595 5601 5608 5616 5625 5633 5642 5651 5661 5671 5676 5680 5687 5703 5711 5718 5719 5681 5672 5735 5744 5755 5769 5768 5769 5779 5789 5780 5778 5765 5752 5761 5781 5792 5811 5819 5804 5808 5793 5764 5725 5734 5720 5724
5576 5580 5585 5590 5596 5603 5612 5621 5630 5639 5648 5659 5670 5679 5684 5690 5700 5704 5706 5689 5671 5703 5711 5741 5754 5759 5755 5768 5771 5774 5769 5759 5777 5771 5750 5749 5752 5795 5816 5806 5789 5784 5771 5726 5726 5711 5727
5573 5578 5582 5586 5592 5599 5606 5614 5623 5633 5643 5656 5669 5675 5677 5691 5694 5692 5684 5655 5671 5695 5724 5729 5741 5746 5750 5764 5769 5767 5758 5756 5770 5775 5754 5747 5759 5801 5809 5813 5805 5777 5763 5768 5723 5718 5720
5568 5572 5576 5581 5587 5593 5600 5608 5617 5627 5638 5649 5654 5664 5674 5684 5687 5684 5666 5661 5681 5702 5718 5729 5721 5737 5735 5746 5749 5750 5749 5772 5774 5782 5787 5770 5754 5788 5800 5806 5798 5792 5781 5749 5730 5723 5724
5563 5566 5570 5575 5580 5586 5593 5601 5611 5621 5633 5644 5650 5660 5668 5675 5678 5667 5652 5657 5681 5703 5710 5717 5718 5722 5735 5740 5740 5739 5748 5776 5784 5778 5783 5767 5760 5767 5784 5780 5773 5774 5761 5741 5733 5721 5707
5556 5559 5564 5568 5574 5579 5586 5593 5602 5613 5626 5636 5638 5644 5659 5665 5651 5629 5651 5665 5684 5696 5709 5713 5717 5719 5727 5739 5740 5734 5745 5764 5790 5781 5764 5770 5751 5740 5758 5786 5791 5788 5771 5755 5727 5732 5708
5550 5555 5559 5563 5567 5573 5578 5585 5593 5602 5612 5616 5622 5625 5649 5654 5633 5635 5650 5665 5678 5688 5695 5703 5707 5720 5731 5730 5729 5746 5752 5782 5784 5778 5766 5766 5739 5720 5739 5760 5780 5774 5770 5753 5740 5729 5717
5543 5547 5550 5554 5558 5563 5569 5575 5580 5591 5601 5606 5614 5620 5628 5631 5625 5641 5649 5656 5667 5690 5689 5698 5704 5717 5720 5723 5730 5737 5748 5772 5776 5777 5780 5777 5735 5735 5721 5748 5763 5762 5769 5759 5755 5729 5722
5538 5541 5544 5548 5551 5554 5557 5560 5568 5582 5592 5595 5598 5602 5608 5616 5621 5631 5640 5650 5658 5664 5684 5692 5698 5703 5713 5711 5721 5728 5744 5752 5768 5766 5767 5763 5742 5746 5756 5763 5769 5767 5764 5762 5762 5751 5747
5531 5534 5538 5540 5542 5544 5547 5552 5560 5572 5583 5585 5587 5591 5594 5602 5610 5623 5628 5642 5651 5660 5666 5681 5686 5702 5708 5709 5719 5725 5732 5744 5748 5761 5758 5751 5733 5750 5746 5763 5767 5759 5764 5762 5762 5753 5756
5523 5527 5528 5530 5533 5534 5536 5542 5552 5561 5572 5570 5569 5578 5584 5596 5603 5614 5621 5635 5645 5652 5675 5685 5692 5694 5701 5713 5725 5734 5737 5735 5743 5751 5748 5744 5735 5732 5723 5744 5755 5737 5752 5755 5746 5747 5751
5515 5519 5520 5522 5525 5527 5532 5538 5544 5548 5553 5557 5557 5560 5574 5588 5596 5605 5617 5627 5640 5647 5656 5681 5686 5689 5703 5718 5726 5729 5731 5733 5738 5735 5744 5734 5727 5715 5713 5729 5712 5738 5754 5759 5749 5745 5745
5509 5512 5514 5516 5519 5522 5527 5531 5537 5541 5546 5549 5550 5554 5558 5575 5586 5601 5609 5620 5631 5639 5651 5665 5678 5685 5693 5702 5694 5691 5692 5717 5725 5719 5728 5734 5719 5699 5702 5695 5717 5734 5746 5749 5753 5748 5745
5503 5506 5509 5511 5514 5517 5522 5525 5531 5535 5540 5542 5543 5546 5549 5557 5580 5590 5598 5609 5610 5617 5638 5655 5671 5679 5687 5673 5674 5671 5671 5690 5700 5716 5724 5724 5720 5711 5691 5699 5694 5725 5751 5757 5756 5716 5743
5498 5501 5503 5506 5509 5512 5516 5520 5525 5530 5533 5536 5536 5541 5543 5547 5566 5582 5590 5596 5605 5607 5614 5628 5647 5660 5674 5657 5652 5658 5668 5689 5683 5695 5701 5691 5687 5691 5683 5687 5698 5727 5740 5748 5710 5713 5744
5493 5496 5498 5501 5504 5507 5510 5514 5519 5524 5527 5529 5530 5534 5536 5536 5555 5576 5588 5594 5598 5598 5605 5622 5634 5643 5650 5647 5650 5652 5661 5668 5674 5679 5686 5682 5679 5676 5668 5672 5682 5715 5729 5725 5724 5731 5738
5489 5491 5493 5496 5499 5502 5505 5509 5514 5517 5521 5525 5523 5527 5530 5532 5553 5566 5582 5592 5597 5602 5603 5608 5618 5623 5633 5635 5637 5641 5646 5646 5645 5656 5674 5670 5672 5672 5678 5680 5696 5702 5710 5720 5721 5726 5726